Paulo Viana

Scout - Flamengo
4 Jun 2028
Sonntag
Verarbeitung

Persönlichkeit

Anpassungsfähigkeit (1) Ehrgeiz (6) Kontroverse (13) Loyalität (20) Druck (18) Professionalität (18) Fairness (11) Temperament (9)

Profil

Trainerstil Demokratisch
Lizenz Kontinentale A
Entschlossenheit 10
Menschenführung 7
Motivation 16
Disziplin 15
Arbeitszufriedenheit
100%
Ermüdung
0%
Rolle Scout
Gehalt 48.0K p/W
Vertrag 14.03.2029

Leistung

Verhalten Gut
Trainingseffektivität
48%
Spielerentwicklung
80%
Verletzungsprävention
45%
Taktische Umsetzung
70%

Letzte Ereignisse

Spieler begutachtet jetzt
Legte dem Vorstand ein Dossier vor jetzt
Spieler begutachtet jetzt
Spieler begutachtet jetzt

Aktuell beobachtet

92
Spieler Verein Status Fähigkeit Vertrauen Beobachtet Zuletzt beobachtet Letzte Stimme
Taty Castellanos West Ham United Aktiv 156 / 161 40% 2 03.06.2028 -
Fer Niño Elche Aktiv 128 / 139 40% 1 03.06.2028 -
Largie Ramazani Leeds United Aktiv 142 / 156 40% 4 02.06.2028 -
Dor Turgeman Leicester City Aktiv 129 / 133 40% 1 02.06.2028 -
Zian Flemming Burnley Aktiv 144 / 138 40% 1 02.06.2028 -
Juanlu Bournemouth Aktiv 159 / 150 40% 1 01.06.2028 -
Harry Clarke Preston Aktiv 142 / 136 40% 1 01.06.2028 -
Callum Doyle Wrexham Aktiv 131 / 135 40% 1 01.06.2028 -
Julio Enciso Ipswich Town Aktiv 158 / 139 40% 6 31.12.2027 -
Elias Achouri San Diego Football Club Aktiv 131 / 125 40% 1 31.12.2027 -
Benjamín Rollheiser Santos Aktiv 131 / 137 40% 1 31.12.2027 -
Henry Mosquera Bragantino Aktiv 129 / 123 40% 1 29.12.2027 -
Thiago Almada River Plate Aktiv 155 / 145 40% 3 28.12.2027 -
Maurício Palmeiras Aktiv 131 / 136 40% 2 28.12.2027 -
Lucas Piton Vasco da Gama Verloren 132 / 125 40% 1 28.12.2027 -
Agustín Giay Palmeiras Aktiv 131 / 138 40% 4 27.12.2027 -
Pedro de la Vega Seattle Sounders Aktiv 149 / 133 40% 1 27.12.2027 -
Alexandro Bernabei Internacional Aktiv 133 / 130 40% 1 26.12.2027 -
David Da Costa Portland Timbers Aktiv 130 / 136 40% 1 26.12.2027 -
Vitinho Botafogo Aktiv 137 / 129 40% 1 25.12.2027 -
Marcos Antonio Sport Recife Aktiv 139 / 143 40% 1 23.12.2027 -
Luciano Juba Bahia Aktiv 127 / 141 40% 1 23.12.2027 -
Facundo Torres Austin FC Aktiv 150 / 125 40% 2 21.12.2027 -
Ferreirinha Zenit Aktiv 124 / 139 40% 1 21.12.2027 -
Santiago Sosa Vasco da Gama Aktiv 139 / 141 40% 1 15.12.2027 -
Renan Lodi Atlético Mineiro Aktiv 135 / 132 40% 1 15.12.2027 -
Danilo Botafogo Aktiv 146 / 148 40% 1 15.12.2027 -
Marcelo Saracchi Houston Dynamo Aktiv 126 / 113 40% 1 01.12.2027 -
Leo Castledine Middlesbrough Aktiv 143 / 149 40% 2 20.07.2027 -
Max Johnston Derby County Aktiv 134 / 120 40% 3 18.07.2027 -
Bobby Thomas Coventry City Aktiv 126 / 137 40% 1 18.07.2027 -
Léo Scienza Southampton Aktiv 148 / 129 40% 5 17.07.2027 -
Georginio Rutter Brighton Aktiv 140 / 140 40% 2 17.07.2027 -
Mohamed Belloumi Hull City Aktiv 147 / 132 40% 2 17.07.2027 -
Dany Mota Monza Aktiv 143 / 121 40% 1 17.07.2027 -
Luís Henrique Inter Aktiv 137 / 142 40% 2 12.07.2027 -
Tyrese Campbell Sheffield United Aktiv 142 / 138 40% 3 11.07.2027 -
Mohamed-Ali Cho Hull City Aktiv 143 / 131 40% 3 11.07.2027 -
Gonzalo Fulham Aktiv 153 / 144 40% 4 10.07.2027 -
Samuel Edozie Southampton Aktiv 134 / 132 40% 5 09.07.2027 -
Exequiel Palacios Ipswich Town Aktiv 165 / 153 40% 3 08.07.2027 -
Morgan Whittaker Middlesbrough Aktiv 129 / 145 40% 4 08.07.2027 -
Jack Rudoni Coventry City Aktiv 131 / 137 40% 3 07.07.2027 -
Manor Solomon West Ham United Aktiv 140 / 129 40% 1 07.07.2027 -
Loum Tchaouna Coventry City Aktiv 140 / 143 40% 5 06.07.2027 -
Kwadwo Baah Watford Aktiv 127 / 135 40% 2 06.07.2027 -
Rico Lewis Manchester City Aktiv 152 / 145 40% 2 05.07.2027 -
Yeremy Pino Crystal Palace Aktiv 157 / 155 40% 1 05.07.2027 -
Harry Wilson Leeds United Aktiv 150 / 147 40% 4 04.07.2027 -
Sorba Thomas Stoke City Aktiv 126 / 131 40% 1 04.07.2027 -
Ethan Williams Peterborough United Aktiv 116 / 125 40% 1 03.07.2027 -
Saša Lukić Ipswich Town Aktiv 151 / 145 40% 2 01.07.2027 -
Carlos Vicente Birmingham Aktiv 138 / 144 40% 1 01.07.2027 -
Ben Nelson Leicester City Aktiv 143 / 143 40% 1 01.07.2027 -
Sven Botman Newcastle United Aktiv 166 / 163 40% 1 01.07.2027 -
Alexis Mac Allister Liverpool Aktiv 156 / 159 40% 3 29.06.2027 -
Koki Saito Queens Park Rangers Aktiv 119 / 140 40% 2 29.06.2027 -
Tomáš Rigo Stoke City Aktiv 143 / 130 40% 1 29.06.2027 -
Óscar Mingueza Crystal Palace Aktiv 156 / 143 40% 1 29.06.2027 -
Shea Charles Southampton Aktiv 141 / 126 40% 1 29.06.2027 -
Jack Clarke Ipswich Town Aktiv 144 / 126 40% 2 27.06.2027 -
Finn Azaz Southampton Aktiv 143 / 123 40% 1 27.06.2027 -
Reiss Nelson AC Milan Aktiv 141 / 154 40% 3 25.06.2027 -
Chemsdine Talbi Sunderland Aktiv 149 / 146 40% 3 25.06.2027 -
James Maddison Tottenham Aktiv 166 / 145 40% 3 25.06.2027 -
Othmane Maamma Watford Aktiv 120 / 132 40% 1 24.06.2027 -
Assane Diao Como Aktiv 144 / 146 40% 2 23.06.2027 -
Kiernan Dewsbury-Hall Everton Aktiv 155 / 147 40% 2 23.06.2027 -
Mason Greenwood Fenerbahce Aktiv 151 / 172 40% 1 22.06.2027 -
Wilfried Gnonto Leeds United Aktiv 135 / 151 40% 1 20.06.2027 -
George Hirst Stoke City Aktiv 135 / 129 40% 2 18.06.2027 -
Welington Southampton Aktiv 132 / 117 40% 1 18.06.2027 -
Rodrigo Muniz Fulham Aktiv 151 / 128 40% 1 15.06.2027 -
Matthijs de Ligt Manchester United Aktiv 172 / 154 40% 1 14.06.2027 -
Adam Wharton Crystal Palace Aktiv 159 / 159 40% 1 14.06.2027 -
Ronald Swansea City Aktiv 119 / 131 40% 1 12.06.2027 -
Quilindschy Hartman Burnley Aktiv 145 / 150 40% 1 11.06.2027 -
Tom Fellows Southampton Aktiv 136 / 122 40% 1 09.06.2027 -
Bongani Kekana SuperSport United Aktiv 133 / 150 40% 1 06.06.2027 -
Loïs Openda Juventus Aktiv 144 / 143 40% 1 05.06.2027 -
Dávid Strelec Middlesbrough Aktiv 147 / 127 40% 1 05.06.2027 -
Alex Scott Bournemouth Aktiv 143 / 166 40% 1 03.06.2027 -
Taiwo Awoniyi Coventry City Aktiv 146 / 134 40% 1 03.06.2027 -
Donyell Malen AS Roma Aktiv 164 / 143 40% 1 03.06.2027 -
Tomás Araújo Benfica Aktiv 155 / 133 40% 1 21.12.2026 -
Jakub Kiwior Porto Aktiv 160 / 167 40% 1 21.12.2026 -
Didier Muller Chamois Niortais Aktiv 153 / 142 40% 1 14.12.2026 -
Pepê Porto Aktiv 139 / 152 40% 1 14.12.2026 -
Marcus Rashford Manchester United Aktiv 167 / 165 40% 1 03.12.2026 -
Amadou Onana Aston Villa Aktiv 163 / 151 40% 1 02.12.2026 -
Anton Stach Leeds United Aktiv 155 / 161 40% 1 02.12.2026 -
Santiago Rodríguez Botafogo Aktiv 119 / 124 72% 1 01.12.2026 Befürworten